Showing default

S-NET C, 43189

Orbit data source: Space-Track

S-NET C, 43189 is a payload satellite owned by TUB (DE) in SSO that was launched on Thu, 01 Feb 2018 UTC via a SOYUZ-2-1A launch vehicle from the Vostochny Cosmodrome (VOSTO). Payload-class satellites include a variety of spacecraft equipped with specific instruments for various scientific and technological missions. These include communications satellites like Starlink; space stations such as the ISS; scientific satellites like the Hubble; Earth observation satellites from companies like Planet Labs, Umbra, and HawkEye 360; GPS; miniature CubeSats for education and research; and military/defense satellites.

Loading next visibility...
Identifier
43189, 2018-014K
Orbit
SSO
Last TLE update
10 hours ago
Origin
Manufacturer
TUB
Mission
Operational Commercial Com/Tech
Bus & Motor
TUBIX10, Unknown motor
Mass
8 kg wet, 8 kg dry
Launch date (UTC)
2018-02-01 (7 years ago)
Launch vehicle
SOYUZ-2-1A
Launch site
Vostochny Cosmodrome (VOSTO)
Object type
Payload
Rocket body
Debris
Shape & HBR
Box, 0.24 m
Radar Cross Section
0.086 m², Medium (>0.1 m² and < 1m²)

Expand to show TLE details & history

TLE from 10 hours ago
0 S-NET C
1 43189U 18014K   25182.67832353  .00004166  00000-0  24628-3 0  9996
2 43189  97.5631  85.5038 0012397 132.0129 228.2159 15.11967280404262
Epoch: 2025-07-01T16:16Z
TLE epoch observation values (Epoch: 2025-07-01T16:16:47.153Z)
Latitude
0.00001°
Longitude
-78.663°
Altitude
538.99 km
Speed
7.59 km/s
True Right ascension
05h 42m 00s
True Declination
0° 00' 00"
Sunlit
Object was in daylight at epoch
Visualization orbit readout
Latitude
61.66817°
Longitude
115.92776°
Altitude
532.425 km
Speed
7.607 km/s
Apparent Right ascension
23h 23m 25s
Apparent Declination
22° 12' 07"
Sunlit
Object is in daylight
Visualization observer readout
Local Sidereal Time
14:00:41
Azimuth
38.053° NE
Elevation
-17.873°
Doppler factor
1
Orbital elements
Apogee altitude
535.745 km
Perigee altitude
518.624 km
Semi-major axis
6,905.321 km
Eccentricity
0.00124
Inclination
97.5631°
RAAN
85.5038°
Arg. of periapsis
132.0129°
True anomaly
Unknown
Mean anomaly
228.2159°
Eccentric anomaly
Unknown
Mean motion
3.7824 °/min
Orbital period
95.18 mins
BSTAR
0.00024628
Loading maneuver chart data...
Loading SW <> Apogee altitude chart data...
Loading historical data...
Loading historical data...
Loading historical data...
Loading historical data...
Loading historical data...
Loading historical data...
Loading historical data...

S-NET C Visibility forecast

Observer location: undefined°, undefined°

Span
Click to sort rows by Start time (UTC) header in descending order
Start Az.
Max El. time (UTC)
Max El. Az.
Max El.
End time (UTC)
End Az.
4 mins2025-07-02 05:34:38.209Z58.497° ENE2025-07-02 05:36:38.209Z97.922° ESE18.546°2025-07-02 05:38:38.209Z134.926° SE
4 mins2025-07-02 07:09:38.209Z318.672° NNW2025-07-02 07:10:38.209Z293.871° NW23.208°2025-07-02 07:13:38.209Z235.729° WSW
6 mins2025-07-02 17:49:38.209Z185.977° SSW2025-07-02 17:51:38.209Z228.124° WSW38.4°2025-07-02 17:55:38.209Z338.636° N
|